Starlink 1112

operational
NORAD ID: 44925 Int'l Des: 2020-001 Owner: SPXS Country: US Constellation: starlink
LEOCIRCULAR

Starlink 1112について

説明を読み込み中...

リアルタイム位置

3D地球を読み込み中...

次回通過

高度履歴

Altitude vs Time

uPlot chart will show altitude changes over time

軌道要素

1 44925U 20001M 25305.61781484 .00020754 00000-0 31194-3 0 9990
2 44925 53.0497 158.9377 0004909 144.4791 215.6547 15.54849377321140
Epoch: Nov 1, 2025 • Age: 23 hours

現在のステータス

高度 418.9 km
速度 7.66 km/s
衛星直下点 -40.42°S, 133.36°W
打ち上げ日 Jan 7, 2020
運用期間 5.8 years
タイプ internet

技術仕様

分類 Payload
質量 260.00 kg
乾燥質量 248.00 kg
総質量 260.00 kg
長さ 0.20 m
直径 2.80 m
スパン 9.00 m
形状 Box + pan
製造者 SPXS
バスタイプ Starlink
フェーズステータス In Orbit
所有者/国 SPXS/US

大規模コンステレーション

Loading constellations...